DW5963 Weather Reports


time (UTC)temp
C
wind
direction
speed
KPH
gust
KPH
rain 1hr
cm
rain 24hr
cm
rain mn
cm
humidity
%
barometer
mb
20260506182053 10 360 11.3 0.0 0.00 0.00 0.00 26 1018.7
20260506181559 10 360 12.9 0.0 0.00 0.00 0.00 26 1018.8
20260506181052 10 360 12.9 0.0 0.00 0.00 0.00 27 1018.9
20260506180551 10 360 8.0 0.0 0.00 0.00 0.00 26 1019.0
20260506175553 8 360 9.7 0.0 0.00 0.00 0.00 29 1019.1
20260506175055 9 360 11.3 0.0 0.00 0.00 0.00 29 1019.2
20260506174605 8 360 11.3 0.0 0.00 0.00 0.00 29 1019.3
20260506174052 9 360 9.7 0.0 0.00 0.00 0.00 29 1019.4
20260506173549 8 360 12.9 0.0 0.00 0.00 0.00 29 1019.4
20260506173054 9 360 14.5 0.0 0.00 0.00 0.00 29 1019.5
20260506172547 9 360 12.9 0.0 0.00 0.00 0.00 29 1019.5
20260506172047 8 360 12.9 0.0 0.00 0.00 0.00 29 1019.5
20260506171545 8 360 12.9 0.0 0.00 0.00 0.00 29 1019.6
20260506171045 8 360 12.9 0.0 0.00 0.00 0.00 31 1019.8
20260506170545 8 360 11.3 0.0 0.00 0.00 0.00 34 1019.8
20260506165542 8 360 11.3 0.0 0.00 0.00 0.00 34 1019.9
20260506165041 8 360 11.3 0.0 0.00 0.00 0.00 35 1020.0
20260506164547 7 360 11.3 0.0 0.00 0.00 0.00 34 1020.1
20260506164039 7 360 11.3 0.0 0.00 0.00 0.00 35 1020.1
20260506163539 7 360 9.7 0.0 0.00 0.00 0.00 36 1020.2
20260506163055 7 360 9.7 0.0 0.00 0.00 0.00 37 1020.3
20260506162538 7 360 8.0 0.0 0.00 0.00 0.00 37 1020.4
20260506162037 7 360 8.0 0.0 0.00 0.00 0.00 39 1020.4
20260506161537 7 360 8.0 0.0 0.00 0.00 0.00 41 1020.4
20260506161037 6 360 6.4 0.0 0.00 0.00 0.00 42 1020.5
20260506160535 7 360 4.8 0.0 0.00 0.00 0.00 42 1020.4
20260506155535 6 360 8.0 0.0 0.00 0.00 0.00 43 1020.6
20260506155038 6 360 9.7 0.0 0.00 0.00 0.00 43 1020.7
20260506154538 6 360 9.7 0.0 0.00 0.00 0.00 44 1020.8
20260506154033 6 360 11.3 0.0 0.00 0.00 0.00 44 1020.8
20260506153534 6 360 9.7 0.0 0.00 0.00 0.00 44 1020.8
20260506153033 6 360 8.0 0.0 0.00 0.00 0.00 46 1021.0
20260506152531 6 360 8.0 0.0 0.00 0.00 0.00 46 1021.0
20260506152031 5 360 6.4 0.0 0.00 0.00 0.00 47 1021.1
20260506151538 5 360 4.8 0.0 0.00 0.00 0.00 46 1021.2
20260506151029 5 360 6.4 0.0 0.00 0.00 0.00 47 1021.2
20260506150528 5 360 8.0 0.0 0.00 0.00 0.00 47 1021.3
20260506145528 5 360 8.0 0.0 0.00 0.00 0.00 48 1021.3
20260506145025 5 360 6.4 0.0 0.00 0.00 0.00 48 1021.4
20260506144526 4 360 6.4 0.0 0.00 0.00 0.00 49 1021.4
20260506144025 4 360 8.0 0.0 0.00 0.00 0.00 49 1021.5
20260506143523 4 360 8.0 0.0 0.00 0.00 0.00 51 1021.4
20260506143022 3 360 6.4 0.0 0.00 0.00 0.00 51 1021.5
20260506142524 3 360 8.0 0.0 0.00 0.00 0.00 51 1021.5
20260506142021 3 360 8.0 0.0 0.00 0.00 0.00 51 1021.6
20260506141518 3 360 6.4 0.0 0.00 0.00 0.00 51 1021.6
20260506141020 2 360 6.4 0.0 0.00 0.00 0.00 52 1021.7
20260506140516 2 360 6.4 0.0 0.00 0.00 0.00 53 1021.7
20260506135518 2 360 8.0 0.0 0.00 0.00 0.00 54 1021.7
20260506135014 1 360 8.0 0.0 0.00 0.00 0.00 55 1021.8
20260506134511 1 360 8.0 0.0 0.00 0.00 0.00 56 1021.7
20260506134016 1 360 8.0 0.0 0.00 0.00 0.00 57 1021.7
20260506133508 1 360 8.0 0.0 0.00 0.00 0.00 58 1021.7
20260506133007 0 360 6.4 0.0 0.00 0.00 0.00 59 1021.8
20260506132510 0 360 6.4 0.0 0.00 0.00 0.00 61 1021.8
20260506132005 0 360 6.4 0.0 0.00 0.00 0.00 62 1021.8
20260506131504 0 360 6.4 0.0 0.00 0.00 0.00 64 1021.9
20260506131005 -1 360 6.4 0.0 0.00 0.00 0.00 66 1021.9
20260506130503 -1 360 6.4 0.0 0.00 0.00 0.00 67 1021.8
20260506125600 -2 360 4.8 0.0 0.00 0.00 0.00 72 1021.7
20260506125059 -2 360 3.2 0.0 0.00 0.00 0.00 73 1021.7
20260506124601 -3 360 3.2 0.0 0.00 0.00 0.00 74 1021.7
20260506124057 -3 360 3.2 0.0 0.00 0.00 0.00 76 1021.7
20260506123556 -4 360 3.2 0.0 0.00 0.00 0.00 77 1021.6
20260506123111 -5 360 1.6 0.0 0.00 0.00 0.00 78 1021.6
20260506122555 -6 360 1.6 0.0 0.00 0.00 0.00 78 1021.6
20260506122054 -6 360 0.0 0.0 0.00 0.00 0.00 77 1021.5
20260506121610 -7 360 0.0 0.0 0.00 0.00 0.00 77 1021.5
20260506121054 -7 360 1.6 0.0 0.00 0.00 0.00 76 1021.4
20260506120553 -7 360 1.6 0.0 0.00 0.00 0.00 76 1021.3
20260506115552 -7 360 1.6 0.0 0.00 0.00 0.00 76 1021.1
20260506115051 -7 360 3.2 0.0 0.00 0.00 0.00 77 1021.1
20260506114552 -7 360 1.6 0.0 0.00 0.00 0.00 77 1021.1
20260506114051 -7 360 0.0 0.0 0.00 0.00 0.00 77 1021.0
20260506113551 -8 360 0.0 0.0 0.00 0.00 0.00 77 1021.0
20260506113050 -8 360 1.6 0.0 0.00 0.00 0.00 77 1020.9
20260506112550 -8 360 1.6 0.0 0.00 0.00 0.00 77 1020.8
20260506112049 -8 360 3.2 0.0 0.00 0.00 0.00 78 1020.8
20260506111549 -8 360 1.6 0.0 0.00 0.00 0.00 77 1020.8
20260506111050 -8 360 1.6 0.0 0.00 0.00 0.00 77 1020.8
20260506110549 -8 360 1.6 0.0 0.00 0.00 0.00 77 1020.8
20260506105549 -8 360 0.0 0.0 0.00 0.00 0.00 76 1020.7
20260506105049 -8 360 0.0 0.0 0.00 0.00 0.00 76 1020.8
20260506104549 -8 360 1.6 0.0 0.00 0.00 0.00 76 1020.7
20260506104048 -8 360 1.6 0.0 0.00 0.00 0.00 75 1020.7
20260506103546 -8 360 1.6 0.0 0.00 0.00 0.00 74 1020.7
20260506103046 -8 360 1.6 0.0 0.00 0.00 0.00 74 1020.6
20260506102545 -8 360 3.2 0.0 0.00 0.00 0.00 74 1020.6
20260506102046 -7 360 3.2 0.0 0.00 0.00 0.00 74 1020.7
20260506101551 -7 360 3.2 0.0 0.00 0.00 0.00 75 1020.6
20260506101044 -7 360 1.6 0.0 0.00 0.00 0.00 75 1020.6
20260506100546 -7 360 1.6 0.0 0.00 0.00 0.00 75 1020.5
20260506095547 -8 360 1.6 0.0 0.00 0.00 0.00 75 1020.7
20260506095044 -8 360 0.0 0.0 0.00 0.00 0.00 74 1020.6
20260506094543 -8 360 1.6 0.0 0.00 0.00 0.00 74 1020.6
20260506094043 -8 360 3.2 0.0 0.00 0.00 0.00 75 1020.7
20260506093545 -8 360 1.6 0.0 0.00 0.00 0.00 74 1020.6
20260506093044 -8 360 1.6 0.0 0.00 0.00 0.00 74 1020.5
20260506092542 -8 360 3.2 0.0 0.00 0.00 0.00 73 1020.6
20260506092041 -8 360 3.2 0.0 0.00 0.00 0.00 74 1020.6
20260506091541 -8 360 3.2 0.0 0.00 0.00 0.00 72 1020.6
20260506091040 -8 360 3.2 0.0 0.00 0.00 0.00 72 1020.5
20260506090540 -8 360 1.6 0.0 0.00 0.00 0.00 72 1020.6
20260506085537 -7 360 1.6 0.0 0.00 0.00 0.00 72 1020.4
20260506085037 -7 360 1.6 0.0 0.00 0.00 0.00 72 1020.4
20260506084543 -7 360 1.6 0.0 0.00 0.00 0.00 71 1020.4
20260506084036 -7 360 3.2 0.0 0.00 0.00 0.00 70 1020.4
20260506083537 -7 360 3.2 0.0 0.00 0.00 0.00 69 1020.4
20260506083035 -7 360 3.2 0.0 0.00 0.00 0.00 69 1020.4
20260506082533 -7 360 3.2 0.0 0.00 0.00 0.00 69 1020.4
20260506082032 -7 360 3.2 0.0 0.00 0.00 0.00 69 1020.5
20260506081535 -7 360 3.2 0.0 0.00 0.00 0.00 67 1020.4
20260506081030 -6 360 3.2 0.0 0.00 0.00 0.00 67 1020.4
20260506080530 -6 360 3.2 0.0 0.00 0.00 0.00 66 1020.4
20260506073529 -5 360 0.0 0.0 0.00 0.00 0.00 65 1020.3
20260506073026 -5 360 0.0 0.0 0.00 0.00 0.00 66 1020.4
20260506072525 -6 360 0.0 0.0 0.00 0.00 0.00 63 1020.3
20260506072024 -6 360 0.0 0.0 0.00 0.00 0.00 61 1020.3
20260506071523 -5 360 0.0 0.0 0.00 0.00 0.00 60 1020.3
20260506071022 -4 360 0.0 0.0 0.00 0.00 0.00 61 1020.3
20260506070524 -4 360 0.0 0.0 0.00 0.00 0.00 61 1020.3
20260506062517 -5 360 0.0 0.0 0.00 0.00 0.00 64 1020.1
20260506062016 -5 360 0.0 0.0 0.00 0.00 0.00 64 1020.1
20260506061517 -5 360 0.0 0.0 0.00 0.00 0.00 63 1020.0
20260506061019 -5 360 0.0 0.0 0.00 0.00 0.00 63 1020.0
20260506060515 -5 360 0.0 0.0 0.00 0.00 0.00 63 1020.1
20260506051013 -5 360 3.2 0.0 0.00 0.00 0.00 63 1019.6
20260506050512 -5 360 3.2 0.0 0.00 0.00 0.00 62 1019.6
20260506045010 -5 360 3.2 0.0 0.00 0.00 0.00 59 1019.6
20260506044515 -5 360 3.2 0.0 0.00 0.00 0.00 59 1019.5
20260506044007 -4 360 3.2 0.0 0.00 0.00 0.00 58 1019.6
20260506043506 -4 360 3.2 0.0 0.00 0.00 0.00 58 1019.7
20260506043006 -3 360 3.2 0.0 0.00 0.00 0.00 58 1019.6
20260506042506 -3 360 3.2 0.0 0.00 0.00 0.00 58 1019.5
20260506042004 -3 360 3.2 0.0 0.00 0.00 0.00 57 1019.7
20260506041504 -3 360 3.2 0.0 0.00 0.00 0.00 58 1019.5
20260506041003 -3 360 3.2 0.0 0.00 0.00 0.00 57 1019.5
20260506040503 -3 360 3.2 0.0 0.00 0.00 0.00 56 1019.5
20260506035504 -3 360 3.2 0.0 0.00 0.00 0.00 55 1019.4
20260506035103 -3 360 4.8 0.0 0.00 0.00 0.00 54 1019.5
20260506034602 -2 360 4.8 0.0 0.00 0.00 0.00 54 1019.5
20260506034057 -2 360 4.8 0.0 0.00 0.00 0.00 53 1019.5
20260506033556 -2 360 3.2 0.0 0.00 0.00 0.00 52 1019.4
20260506033055 -2 360 3.2 0.0 0.00 0.00 0.00 51 1019.4
20260506032554 -1 360 3.2 0.0 0.00 0.00 0.00 50 1019.3
20260506032053 -1 360 3.2 0.0 0.00 0.00 0.00 49 1019.2
20260506031552 0 360 3.2 0.0 0.00 0.00 0.00 49 1019.1
20260506031053 0 360 3.2 0.0 0.00 0.00 0.00 49 1019.1
20260506030552 0 360 4.8 0.0 0.00 0.00 0.00 50 1019.1
20260506030155 -1 360 4.8 0.0 0.00 0.00 0.00 50 1018.9
20260506025553 -1 360 4.8 0.0 0.00 0.00 0.00 48 1019.0
20260506025051 0 360 3.2 0.0 0.00 0.00 0.00 46 1018.9
20260506024548 0 360 3.2 0.0 0.00 0.00 0.00 45 1018.7
20260506024048 1 360 4.8 0.0 0.00 0.00 0.00 44 1018.6
20260506023546 1 360 6.4 0.0 0.00 0.00 0.00 42 1018.6
20260506023058 2 360 6.4 0.0 0.00 0.00 0.00 42 1018.5
20260506022545 2 360 4.8 0.0 0.00 0.00 0.00 41 1018.5
20260506022048 3 360 4.8 0.0 0.00 0.00 0.00 39 1018.4
20260506021545 3 360 6.4 0.0 0.00 0.00 0.00 38 1018.5
20260506021047 4 360 6.4 0.0 0.00 0.00 0.00 38 1018.4
20260506020544 5 360 8.0 0.0 0.00 0.00 0.00 37 1018.4
20260506020144 5 360 9.7 0.0 0.00 0.00 0.00 36 1018.4
20260506015545 5 360 11.3 0.0 0.00 0.00 0.00 36 1018.4
20260506015044 6 360 12.9 0.0 0.00 0.00 0.00 35 1018.3
20260506014544 6 360 14.5 0.0 0.00 0.00 0.00 35 1018.3
20260506014043 6 360 12.9 0.0 0.00 0.00 0.00 35 1018.2
20260506013543 6 360 14.5 0.0 0.00 0.00 0.00 34 1018.2
20260506013052 6 360 16.1 0.0 0.00 0.00 0.00 34 1018.2
20260506012546 6 360 17.7 0.0 0.00 0.00 0.00 33 1018.1
20260506012046 7 360 17.7 0.0 0.00 0.00 0.00 33 1018.1
20260506011546 7 360 17.7 0.0 0.00 0.00 0.00 33 1018.1
20260506011046 7 360 19.3 0.0 0.00 0.00 0.00 33 1018.1
20260506010543 7 360 19.3 0.0 0.00 0.00 0.00 33 1018.1
20260506010143 7 360 17.7 0.0 0.00 0.00 0.00 32 1018.0
20260506005543 7 360 16.1 0.0 0.00 0.00 0.00 32 1018.0
20260506005046 7 360 16.1 0.0 0.00 0.00 0.00 33 1018.0
20260506004544 7 360 16.1 0.0 0.00 0.00 0.00 32 1017.9
20260506004043 7 360 16.1 0.0 0.00 0.00 0.00 32 1017.8
20260506003544 7 360 16.1 0.0 0.00 0.00 0.00 33 1017.8
20260506003042 7 360 19.3 0.0 0.00 0.00 0.00 32 1017.7
20260506002542 7 360 19.3 0.0 0.00 0.00 0.00 32 1017.7
20260506002042 7 360 17.7 0.0 0.00 0.00 0.00 33 1017.8
20260506001547 7 360 17.7 0.0 0.00 0.00 0.00 33 1017.7
20260506001042 7 360 17.7 0.0 0.00 0.00 0.00 34 1017.9
20260506000545 7 360 17.7 0.0 0.00 0.00 0.00 34 1017.9
20260506000143 7 360 17.7 0.0 0.00 0.00 0.00 34 1017.9
20260505235541 7 360 16.1 0.0 0.00 0.00 0.00 34 1017.9
20260505235041 7 360 14.5 0.0 0.00 0.00 0.00 35 1017.9
20260505234541 7 360 17.7 0.0 0.00 0.00 0.00 35 1017.9
20260505234041 7 360 19.3 0.0 0.00 0.00 0.00 35 1017.9
20260505233543 7 360 17.7 0.0 0.00 0.00 0.00 35 1017.9
20260505233041 7 360 16.1 0.0 0.00 0.00 0.00 35 1017.8
20260505232541 7 360 17.7 0.0 0.00 0.00 0.00 34 1017.9
20260505232040 7 360 20.9 0.0 0.00 0.00 0.00 34 1017.8
20260505231541 7 360 22.5 0.0 0.00 0.00 0.00 34 1017.9
20260505231040 7 360 22.5 0.0 0.00 0.00 0.00 35 1017.8
20260505230540 7 360 22.5 0.0 0.00 0.00 0.00 35 1017.8
20260505230140 7 360 20.9 0.0 0.00 0.00 0.00 34 1017.8
20260505225540 7 360 20.9 0.0 0.00 0.00 0.00 34 1017.8
20260505225040 8 360 20.9 0.0 0.00 0.00 0.00 35 1017.8
20260505224540 7 360 20.9 0.0 0.00 0.00 0.00 34 1017.8
20260505224039 7 360 20.9 0.0 0.00 0.00 0.00 33 1017.8
20260505223539 8 360 22.5 0.0 0.00 0.00 0.00 34 1017.7
20260505223043 8 360 24.1 0.0 0.00 0.00 0.00 31 1017.7
20260505222539 9 360 22.5 0.0 0.00 0.00 0.00 31 1017.8
20260505222043 9 360 24.1 0.0 0.00 0.00 0.00 31 1017.7
20260505221545 9 360 22.5 0.0 0.00 0.00 0.00 32 1017.8
20260505221038 8 360 20.9 0.0 0.00 0.00 0.00 33 1017.7
20260505220539 8 360 22.5 0.0 0.00 0.00 0.00 33 1017.6
20260505220138 9 360 22.5 0.0 0.00 0.00 0.00 32 1017.7
20260505215538 9 360 22.5 0.0 0.00 0.00 0.00 32 1017.7
20260505215037 8 360 20.9 0.0 0.00 0.00 0.00 32 1017.7
20260505214537 8 360 22.5 0.0 0.00 0.00 0.00 34 1017.7
20260505214036 7 360 24.1 0.0 0.00 0.00 0.00 34 1017.7
20260505213536 8 360 22.5 0.0 0.00 0.00 0.00 32 1017.7
20260505213036 7 360 22.5 0.0 0.00 0.00 0.00 34 1017.7
20260505212536 8 360 24.1 0.0 0.00 0.00 0.00 33 1017.7
20260505212036 8 360 22.5 0.0 0.00 0.00 0.00 32 1017.8
20260505211535 8 360 19.3 0.0 0.00 0.00 0.00 34 1017.7
20260505211035 7 360 20.9 0.0 0.00 0.00 0.00 33 1017.9
20260505210535 7 360 24.1 0.0 0.00 0.00 0.00 34 1018.1
20260505210133 7 360 24.1 0.0 0.00 0.00 0.00 34 1018.1
20260505205535 7 360 24.1 0.0 0.00 0.00 0.00 34 1018.2
20260505205032 7 360 22.5 0.0 0.00 0.00 0.00 35 1018.1
20260505204633 7 360 22.5 0.0 0.00 0.00 0.00 34 1018.2
20260505204033 7 360 22.5 0.0 0.00 0.00 0.00 34 1018.3
20260505203656 7 360 20.9 0.0 0.00 0.00 0.00 34 1018.2
20260505203031 7 360 20.9 0.0 0.00 0.00 0.00 35 1018.3
20260505202531 7 360 22.5 0.0 0.00 0.00 0.00 35 1018.3
20260505202031 7 360 22.5 0.0 0.00 0.00 0.00 34 1018.3
20260505201530 7 360 20.9 0.0 0.00 0.00 0.00 35 1018.2
20260505201030 7 360 22.5 0.0 0.00 0.00 0.00 35 1018.3
20260505200531 7 360 22.5 0.0 0.00 0.00 0.00 35 1018.2
20260505200130 7 360 20.9 0.0 0.00 0.00 0.00 35 1018.2
20260505195530 7 360 19.3 0.0 0.00 0.00 0.00 35 1018.2
20260505195030 6 360 19.3 0.0 0.00 0.00 0.00 35 1018.3
20260505194530 7 360 19.3 0.0 0.00 0.00 0.00 35 1018.3
20260505194030 7 360 20.9 0.0 0.00 0.00 0.00 35 1018.3
20260505193530 7 360 20.9 0.0 0.00 0.00 0.00 35 1018.2
20260505193031 6 360 20.9 0.0 0.00 0.00 0.00 36 1018.2
20260505192531 6 360 20.9 0.0 0.00 0.00 0.00 35 1018.2
20260505192030 6 360 22.5 0.0 0.00 0.00 0.00 36 1018.2
20260505191530 6 360 20.9 0.0 0.00 0.00 0.00 36 1018.2
20260505191028 6 360 20.9 0.0 0.00 0.00 0.00 36 1018.2
20260505190528 6 360 20.9 0.0 0.00 0.00 0.00 35 1018.2
20260505190131 6 360 20.9 0.0 0.00 0.00 0.00 36 1018.3
20260505185528 6 360 22.5 0.0 0.00 0.00 0.00 36 1018.3
20260505185030 6 360 22.5 0.0 0.00 0.00 0.00 36 1018.3
20260505184529 6 360 22.5 0.0 0.00 0.00 0.00 36 1018.2
20260505184028 6 360 20.9 0.0 0.00 0.00 0.00 36 1018.2
20260505183530 6 360 20.9 0.0 0.00 0.00 0.00 36 1018.2
20260505183034 6 360 22.5 0.0 0.00 0.00 0.00 37 1018.2
20260505182527 6 360 22.5 0.0 0.00 0.00 0.00 37 1018.2